Greensboro, NC

10:56 PM EST on December 11, 2017 (GMT -0500)
Piedmont Triad International

Weather History for KGSO - June, 2014

Change the Weather History Date:

Saturday, June 14, 2014

  Actual Average Record
Temperature  
Mean Temperature 75 °F 75 °F  
Max Temperature 85 °F 85 °F 98 °F (1926)
Min Temperature 64 °F 65 °F 48 °F (1985)
Degree Days  
Heating Degree Days 0 0  
Month to date heating degree days 0 5  
Since 1 June heating degree days 0 5  
Since 1 July heating degree days 3818 3617  
Cooling Degree Days 10 10  
Month to date cooling degree days 137 119  
Year to date cooling degree days 334 278  
Since 1 June cooling degree days 137 119  
Growing Degree Days 25 (Base 50)    
Moisture  
Dew Point 57 °F    
Average Humidity 55    
Maximum Humidity 81    
Minimum Humidity 29    
Precipitation  
Precipitation 0.00 in 0.12 in 2.60 in (1910)
Month to date precipitation 2.54 1.76  
Year to date precipitation 20.03 18.46  
Sea Level Pressure  
Sea Level Pressure 29.98 in    
Wind  
Wind Speed 4 mph (North)    
Max Wind Speed 13 mph    
Max Gust Speed 16 mph    
Visibility 10 miles    
Events      
T = Trace of Precipitation, MM = Missing Value Source: NWS Daily Summary

Daily Weather History Graph

Daily Weather History Graph

Search for Another Location

Airport or City:

Trip Planner

Search our weather history database for the weather conditions in past years. The results will help you decide how hot, cold, wet, or windy it might be!

Date:

Astronomy

Jun. 14, 2014 Rise Set
Actual Time 6:02 AM EDT 8:38 PM EDT
Civil Twilight 5:31 AM EDT 9:08 PM EDT
Nautical Twilight 4:54 AM EDT 9:45 PM EDT
Astronomical Twilight 4:12 AM EDT 10:27 PM EDT
Moon 10:03 PM EDT (6/14) 7:41 AM EDT (6/14)
Length of Visible Light 15h 36m
Length of Day
14h 35m
Full, 97% of the Moon is Illuminated
Jun 14
Full
Jun 19
Last Quarter
Jun 27
New
Jul 5
First Quarter
Jul 12
Full

Hourly Weather History & Observations

Time (EDT) Temp. Heat Index Dew Point Humidity Pressure Visibility Wind Dir Wind Speed Gust Speed Precip Events Conditions
12:54 AM 73.0 °F - 60.1 °F 64% 29.90 in 10.0 mi NNW 3.5 mph - N/A   Overcast
1:54 AM 71.1 °F - 60.1 °F 68% 29.91 in 10.0 mi Calm Calm - N/A   Mostly Cloudy
2:54 AM 70.0 °F - 61.0 °F 73% 29.91 in 10.0 mi Calm Calm - N/A   Mostly Cloudy
3:54 AM 68.0 °F - 60.1 °F 76% 29.91 in 10.0 mi North 3.5 mph - N/A   Mostly Cloudy
4:54 AM 66.9 °F - 60.1 °F 79% 29.92 in 10.0 mi NNE 3.5 mph - N/A   Clear
5:54 AM 66.9 °F - 60.1 °F 79% 29.93 in 10.0 mi NNE 3.5 mph - N/A   Partly Cloudy
6:54 AM 66.9 °F - 60.1 °F 79% 29.95 in 10.0 mi NNE 4.6 mph - N/A   Partly Cloudy
7:54 AM 70.0 °F - 59.0 °F 68% 29.98 in 10.0 mi North 5.8 mph - N/A   Partly Cloudy
8:54 AM 72.0 °F - 57.0 °F 59% 30.00 in 10.0 mi NNE 9.2 mph - N/A   Scattered Clouds
9:54 AM 73.9 °F - 57.0 °F 55% 30.01 in 10.0 mi North 8.1 mph - N/A   Scattered Clouds
10:54 AM 75.0 °F - 57.9 °F 55% 30.02 in 10.0 mi Variable 5.8 mph - N/A   Mostly Cloudy
11:54 AM 79.0 °F - 59.0 °F 50% 30.02 in 10.0 mi North 5.8 mph - N/A   Scattered Clouds
12:54 PM 79.0 °F - 59.0 °F 50% 30.01 in 10.0 mi Variable 4.6 mph - N/A   Mostly Cloudy
1:54 PM 82.0 °F 82.0 °F 57.9 °F 44% 30.00 in 10.0 mi Calm Calm - N/A   Partly Cloudy
2:54 PM 82.9 °F 82.1 °F 55.9 °F 39% 29.99 in 10.0 mi North 6.9 mph - N/A   Partly Cloudy
3:54 PM 82.9 °F 81.9 °F 54.0 °F 37% 29.99 in 10.0 mi NNW 8.1 mph - N/A   Partly Cloudy
4:54 PM 84.0 °F 83.0 °F 55.9 °F 38% 29.97 in 10.0 mi Variable 3.5 mph - N/A   Partly Cloudy
5:54 PM 84.0 °F 82.9 °F 55.0 °F 37% 29.97 in 10.0 mi North 6.9 mph - N/A   Partly Cloudy
6:54 PM 84.0 °F - 48.9 °F 29% 29.98 in 10.0 mi North 4.6 mph - N/A   Partly Cloudy
7:54 PM 82.0 °F - 50.0 °F 33% 29.99 in 10.0 mi North 3.5 mph - N/A   Partly Cloudy
8:54 PM 77.0 °F - 55.0 °F 47% 30.01 in 10.0 mi Calm Calm - N/A   Clear
9:54 PM 75.0 °F - 55.9 °F 51% 30.04 in 10.0 mi NE 3.5 mph - N/A   Clear
10:54 PM 71.1 °F - 57.0 °F 61% 30.05 in 10.0 mi Calm Calm - N/A   Clear
11:54 PM 69.1 °F - 57.9 °F 68% 30.07 in 10.0 mi Calm Calm - N/A   Clear